www.pogodaiklimat.ru

Погода и климат >> Архив погоды >> Пакистан >> Мир Пур Кхас


ПОГОДА в Мир Пур Кхас

  • Прогноз погоды в Мир Пур Кхас
  • Монитор погоды в Мир Пур Кхас

АРХИВ ПОГОДЫ в Мир Пур Кхас

Время (UTC), дата Ветер
(напр.,м/с)
 
Видим.   Явления Облачность Т
(С)
Тd
(С)
f
(%)
Тe
(С)
Тes
(С)
Комфортность P
(гПа)
Po
(гПа)
Тmin
(С)
Tmax
(С)
R
(мм)
R24
(мм)
S
(см)
18 16.07 ЮЗ 5 4000 м ясно +29.5 +23.0 68 +39 +39 очень
душно
997.6 995.6
21 16.07 ЮЗ 4 4000 м ясно +27.5 +21.6 70 +35 +35 очень
душно
995.6 993.7
00 17.07 ЮЗ 4 4000 м ясно +25.0 +21.3 80 +32 +32 очень
душно
994.6 992.6
06 17.07 ЮЗ 4 4000 м 8/8 900 м
[Sc]
+32.0 +23.4 60 +43 +45 опасность
перегрева
1000.7 998.8
09 17.07 ЮЗ 4 4000 м 5/5 900 м
[Sc]
+35.0 +24.5 55 +48 +54 опасность
перегрева
999.8 997.9
12 17.07 ЮЗ 4 4000 м 3/3 900 м
[Sc]
+35.0 +24.5 55 +48 +50 опасность
перегрева
997.7 995.9 +36.5
15 17.07 ЮЗ 4 4000 м ясно +29.0 +23.2 71 +39 +39 очень
душно
998.9 997.0
18 17.07 ЮЗ 4 4000 м ясно +27.5 +22.4 74 +36 +36 очень
душно
1000.5 998.5
21 17.07 ЮЗ 4 4000 м ясно +25.5 +21.8 80 +33 +33 очень
душно
998.6 996.7
00 18.07 ЮЗ 4 4000 м ясно +24.0 +21.0 83 +30 +30 очень
душно
996.2 994.2
03 18.07 ЮЗ 4 4000 м ясно +28.0 +22.1 70 +36 +40 очень
душно
998.7 996.7 +23.5
06 18.07 ЮЗ 3 4000 м 5/5 900 м
[Sc]
+33.0 +22.1 53 +42 +50 опасность
перегрева
1000.3 998.4
09 18.07 ЮЗ 4 4000 м 8/8 900 м
[Sc]
+36.0 +23.2 48 +46 +49 опасность
перегрева
998.6 996.7
12 18.07 ЮЗ 4 4000 м 5/5 900 м
[Sc]
+36.5 +23.0 46 +46 +48 опасность
перегрева
997.5 995.8 +37.0
15 18.07 ЮЗ 3 4000 м ясно +30.0 +22.5 64 +39 +39 очень
душно
998.7 996.8
18 18.07 ЮЗ 3 4000 м ясно +28.5 +23.5 74 +39 +39 очень
душно
999.9 997.9
21 18.07 ЮЗ 3 4000 м ясно +27.0 +23.4 81 +37 +37 очень
душно
998.6 996.7
00 19.07 ЮЗ 3 4000 м ясно +24.5 +21.5 83 +31 +31 очень
душно
998.2 996.2
03 19.07 ЮЗ 3 4000 м ясно +28.5 +21.9 67 +37 +41 очень
душно
999.7 997.7 +24.0
06 19.07 ЮЗ 3 4000 м 4/4 900 м
[Sc]
+33.5 +21.0 48 +41 +50 опасность
перегрева
1001.4 999.6
09 19.07 ЮЗ 3 4000 м 4/4 900 м
[Sc]
+36.5 +23.0 46 +46 +56 опасность
перегрева
998.6 996.7
12 19.07 ЮЗ 3 4000 м 4/4 900 м
[Sc]
+36.0 +23.0 47 +46 +48 опасность
перегрева
998.0 996.2 +37.0
15 19.07 ЮЗ 3 4000 м ясно +31.0 +23.1 63 +41 +41 опасность
перегрева
999.5 997.6
18 19.07 ЮЗ 3 4000 м ясно +28.0 +22.1 70 +36 +36 очень
душно
1001.8 999.8
21 19.07 ЮЗ 3 4000 м ясно +25.0 +21.3 80 +32 +32 очень
душно
1000.5 998.6
00 20.07 ЮЗ 3 4000 м ясно +24.0 +21.0 83 +30 +30 очень
душно
1001.0 998.0
03 20.07 ЮЗ 3 4000 м ясно +27.0 +21.8 73 +35 +39 очень
душно
1002.9 1000.7 +23.5
06 20.07 ЮЗ 3 4000 м ясно +33.0 +22.1 53 +42 +58 опасность
перегрева
1004.5 1002.6
09 20.07 ЮЗ 2 4000 м ясно +37.0 +22.8 44 +46 +65 опасность
перегрева
1002.1 1000.2
12 20.07 ЮЗ 2 4000 м ясно +36.5 +22.1 43 +45 +49 опасность
перегрева
1000.6 998.7 +38.0
15 20.07 ЮЗ 2 4000 м ясно +30.0 +22.8 65 +40 +40 очень
душно
1002.2 1000.3
18 20.07 ЮЗ 2 4000 м ясно +28.0 +22.1 70 +36 +36 очень
душно
1003.8 1001.8
21 20.07 ЮЗ 2 4000 м ясно +26.5 +22.1 77 +34 +34 очень
душно
1002.2 1000.3
00 21.07 ЮЗ 2 4000 м ясно +24.5 +21.5 83 +31 +31 очень
душно
1001.7 999.7
03 21.07 ЮЗ 1 4000 м ясно +28.5 +21.9 67 +37 +43 очень
душно
1002.4 1000.4 +24.0
06 21.07 ЮЗ 1 4000 м 4/4 900 м
[Sc]
+33.5 +22.7 53 +43 +57 опасность
перегрева
1003.5 1001.7
09 21.07 ЮЗ 1 4000 м 4/4 900 м
[Sc]
+36.5 +23.8 48 +47 +61 опасность
перегрева
1000.4 998.5
12 21.07 ЮЗ 1 4000 м 4/4 900 м
[Sc]
+36.0 +24.0 50 +47 +51 опасность
перегрева
998.9 997.1 +37.5
15 21.07 ЮЗ 1 4000 м ясно +30.5 +23.3 65 +41 +41 опасность
перегрева
1000.5 998.6
18 21.07 ЮЗ 1 4000 м 4/4 900 м
[Sc]
+28.5 +21.9 67 +37 +37 очень
душно
1002.2 1000.2
21 21.07 ЮЗ 1 4000 м 4/4 900 м
[Sc]
+26.5 +21.3 73 +34 +34 очень
душно
1000.1 998.2
00 22.07 ЮЗ 1 4000 м 4/4 900 м
[Sc]
+25.0 +20.5 76 +31 +31 очень
душно
999.6 997.6
03 22.07 ЮЗ 1 4000 м 4/4 900 м
[Sc]
+28.5 +21.9 67 +37 +40 очень
душно
999.8 997.8 +24.5
06 22.07 ЮЗ 1 4000 м 4/4 900 м
[Sc]
+34.5 +21.4 47 +42 +56 опасность
перегрева
1000.0 998.3
09 22.07 ЮЗ 1 4000 м 4/4 900 м
[Sc]
+37.5 +22.5 42 +46 +59 опасность
перегрева
998.8 996.9
12 22.07 ЮЗ 1 4000 м 4/4 900 м
[Sc]
+37.5 +22.5 42 +46 +49 опасность
перегрева
994.9 993.1 +39.0
15 22.07 ЮЗ 1 4000 м 4/4 900 м
[Sc]
+31.0 +23.0 62 +41 +41 опасность
перегрева
997.0 995.1
18 22.07 ЮЗ 3 4000 м слаб. морось 10/5 900 м
[Sc Ac trans]
+27.5 +22.4 74 +36 +36 очень
душно
999.1 997.1 1
21 22.07 ЮЗ 3 4000 м 10/5 900 м
[Sc Ac trans]
+26.5 +22.1 77 +34 +34 очень
душно
995.5 993.6
00 23.07 ЮЗ 3 4000 м 10/5 900 м
[Sc Ac trans]
+24.0 +21.0 83 +30 +30 очень
душно
994.3 992.3
03 23.07 ЮЗ 1 4000 м ясно +28.0 +22.1 70 +36 +42 очень
душно
997.4 995.4 +23.5
06 23.07 ЮЗ 1 4000 м ясно +36.0 +20.6 41 +43 +66 опасность
перегрева
998.8 997.1
09 23.07 ЮЗ 1 4000 м ясно +39.0 +23.5 41 +49 +71 опасность
перегрева
998.4 996.5

 

Местоположение метеостанции Мир Пур Кхас (Пакистан): широта 25.52 долгота 68.96 высота над уровнем моря 17 м.

В архиве по умолчанию представлена погода в Мир Пур Кхас за последнюю неделю. Архивные данные за месяц целиком и за предыдущие месяцы, начиная с января 2011 года, Вы можете получить, выбрав интересующий диапазон дат из раскрывающегося списка и нажав кнопку "Ввод!".


*Определитесь, кто Вы:
робот инопланетянин человек

Внимание! Время в таблицах - всемирное. Для получения местного времени необходимо прибавить поправку, которая равна 5 ч.

Смотрите также архив погоды в соседних городах и на ближайших метеорологических станциях:

Погода в Хайдарабате (Пакистан) (56 км)
Погода в Сакранде (Пакистан) (82 км)
Погода в Чоре (Пакистан) (82 км)
Погода в Бадине (Пакистан) (99 км)
Погода в Навабшахе (Пакистан) (100 км)
Погода в Митхи (Пакистан) (120 км)
Погода в Татте (Пакистан) (137 км)
Погода в Пад Идан (Пакистан) (170 км)
Погода в Карачи (Пакистан) (197 км)
Погода в Мохенджо-Даро (Пакистан) (217 км)

Пояснения к столбцам:

Ветер - указаны скорость ветра в м/с - средняя за 10 мин, порывы в срок и между сроками (в фигурных скобках) и направление, откуда дует ветер: С - северный, СВ - северо-восточный, В - восточный, ЮВ - юго-восточный, Ю - южный, ЮЗ - юго-западный, З - западный, СЗ - северо-западный.
Видимость - горизонтальная дальность видимости в метрах или километрах. При видимости от 1 до 10 км при отсутствии осадков обычно наблюдается дымка, при ухудшении видимости до 1 км и менее - туман. В сухую погоду видимость может ухудшаться дымом, пылью или мглою.
Явления - указаны атмосферные явления, наблюдавшиеся в срок или в последний час перед сроком; фигурными скобками обозначены явления, наблюдавшиеся между сроками (за 1-3 часа до срока); квадратными скобками обозначены град или гололедные отложения с указанием их диаметра в мм.
Облачность - указаны через наклонную черту общая и нижняя облачность в баллах и высота нижней границы облаков в метрах; квадратными скобками обозначены формы облаков: Ci - перистые, Cs - перисто-слоистые, Cc - перисто-кучевые, Ac - высококучевые, As - высокослоистые, Sc - слоисто-кучевые, Ns - слоисто-дождевые, Cu - кучевые, Cb - кучево-дождевые. Подробнее классификацию облаков см. в Атласе облаков (PDF).
T - Температура воздуха - температура, измеренная на высоте 2 м над землей.
Td - Температура точки росы - температура, при понижении до которой содержащийся в воздухе водяной пар достигнет насыщения.
f - Относительная влажность воздуха - влажноcть воздуха, измеренная на высоте 2 м над землей.
Te - Эффективная температура - температура, которую ощущает одетый по сезону человек в тени. Характеристика душности погоды. При расчете учитывается влияние влажности воздуха и скорости ветра на теплоощущения человека.
Tes - Эффективная температура на солнце - температура, которую ощущает человек, с поправкой на солнечный нагрев. Характеристика знойности погоды. Зависит от высоты солнца над горизонтом, облачности и скорости ветра. Ночью, в пасмурную погоду, а также при ветре 12 м/с и более поправка равна нулю.
P - Атмосферное давление - приведенное к уровню моря атмосферное давление.
Po - Атмосферное давление - измеренное на уровне метеостанции атмосферное давление.
Tmin - Минимальная температура - минимум температуры воздуха на высоте 2 м над землей.
Tmax - Максимальная температура - максимум температуры воздуха на высоте 2 м над землей.
R - Количество осадков - Количество выпавших осадков за период времени, мм. При наведении курсора мыши на число - период времени, за который выпало указанное количество осадков.
R24 - Количество осадков - Количество выпавших осадков за 24 часа, мм.
S - Снежный покров - Высота снежного покрова, см. При наведении курсора мыши на число - состояние снежного покрова и степень покрытия местности в баллах.